Flag for Canada Weather past 2 weeks in Yarmouth County, Nova Scotia, Canada

Now
41 °F

Sprinkles. Fog.


Feels Like: 31 °F
Forecast: 33 / 45 °F
Wind: 23 mph from Northwest

Location: Yarmouth

Current Time: Dec 18, 2014 at 6:05:50 AM

Latest Report: Dec 18, 2014 at 5:00 AM


Visibility: 2 mi

Pressure: 29.44 "Hg

Humidity: 100%

Dew point: 41 °F

Location of Yarmouth CountyLocation

Historic Weather in Yarmouth County — Graph

°F

Yarmouth County temperature yesterday

Maximum temperature yesterday: 46 °F (at 9:00 PM)
Minimum temperature yesterday: 32 °F (at 12:00 AM)
Average temperature yesterday: 38 °F

Past Weeks' High & Low Weather Summary

 TemperatureHumidityPressure
High59 °F (Dec 10, 1:00 PM)100% (Dec 3, 8:00 AM)30.78 "Hg (Dec 3, 8:00 AM)
Low14 °F (Dec 8, 2:00 AM)46% (Dec 5, 3:00 PM)29.39 "Hg (Dec 18, 4:00 AM)
Average38 °F87%30.05 "Hg
* Reported Dec 3 4:00 AM — Dec 18 4:00 AM, Yarmouth County, Weather by CustomWeather, © 2014

Note: Actual official high and low records may vary slightly from our data, if they occured in-between our weather recording intervals... More about our weather records

Advertising

Yarmouth County weather history for previous 24 hours

 ConditionsComfort  
Time TempWeatherWind HumidityBarometerVisibility
4:00 AM
Dec 18
45 °FSprinkles. Fog.7 mph100%29.39 "Hg1 mi
3:00 AM45 °FSprinkles. Fog.9 mph100%29.40 "Hg2 mi
2:00 AM45 °FSprinkles. Fog.7 mph100%29.41 "Hg2 mi
1:00 AM45 °FSprinkles. Fog.10 mph100%29.44 "Hg2 mi
12:00 AM46 °FSprinkles. Fog.12 mph100%29.46 "Hg0 mi
11:00 PM
Dec 17
46 °FSprinkles. Fog.7 mph100%29.48 "Hg2 mi
10:00 PM46 °FSprinkles. Fog.8 mph100%29.50 "Hg2 mi
9:00 PM46 °FSprinkles. Low clouds.13 mph93%29.53 "Hg9 mi
8:00 PM45 °FSprinkles. Low clouds.14 mph100%29.58 "Hg9 mi
7:00 PM43 °FSprinkles. Fog.16 mph100%29.59 "Hg9 mi
6:00 PM43 °FRain showers. Fog.21 mph100%29.63 "Hg3 mi
5:00 PM41 °FRain showers. Fog.23 mph100%29.66 "Hg3 mi
4:00 PM41 °FRain showers. Fog.22 mph100%29.69 "Hg2 mi
3:00 PM39 °FSprinkles. Fog.18 mph100%29.72 "Hg3 mi
2:00 PM39 °FSprinkles. Fog.18 mph100%29.77 "Hg3 mi
1:00 PM41 °FSprinkles. Fog.17 mph87%29.82 "Hg12 mi
12:00 PM41 °FOvercast.16 mph81%29.87 "Hg15 mi
11:00 AM39 °FOvercast.17 mph87%29.92 "Hg15 mi
10:00 AM37 °FCloudy.15 mph87%29.94 "Hg15 mi
9:47 AM36 °FMore clouds than sun.15 mph93%29.96 "Hg15 mi
9:00 AM36 °FMore clouds than sun.18 mph93%29.96 "Hg15 mi
8:00 AM34 °FMostly cloudy.14 mph100%29.98 "Hg12 mi
7:00 AM34 °FMostly cloudy.13 mph100%30.00 "Hg9 mi
6:00 AM34 °FMostly cloudy.10 mph93%30.01 "Hg9 mi
Weather by CustomWeather, © 2014

See weather overviewHow to use our weather pages